When you browse on this site, cookies collect data to enhance your experience and personalize the content and advertising you see.
Visit our Privacy Policy to learn more. By continuing to use the site, you agree to this use of cookies and data.

Hourly Weather Ghanzi

Today, 22 September, Tuesday

Time Temperature Precipitation Wind Pressure Humidity
00:00 +27°C° 0 mm 5 mps 715 mmHg 33%
01:00 +26°C° 0 mm 5 mps 715 mmHg 39%
02:00 +26°C° 0 mm 5 mps 715 mmHg 42%
03:00 +26°C° 0 mm 5 mps 715 mmHg 45%
04:00 +25°C° 0 mm 5 mps 715 mmHg 48%
05:00 +26°C° 0 mm 5 mps 715 mmHg 45%
06:00 +26°C° 0 mm 6 mps 716 mmHg 42%
07:00 +27°C° 0 mm 7 mps 716 mmHg 40%
08:00 +29°C° 0 mm 6 mps 717 mmHg 35%
09:00 +33°C° 0 mm 6 mps 717 mmHg 30%
10:00 +35°C° 0 mm 6 mps 717 mmHg 25%
11:00 +36°C° 0 mm 6 mps 717 mmHg 22%
12:00 +37°C° 0 mm 5 mps 716 mmHg 20%
13:00 +39°C° 0 mm 5 mps 716 mmHg 17%
14:00 +39°C° 0 mm 5 mps 715 mmHg 17%
15:00 +39°C° 0 mm 5 mps 715 mmHg 16%
16:00 +39°C° 0 mm 5 mps 715 mmHg 16%
17:00 +36°C° 0 mm 5 mps 715 mmHg 18%
18:00 +35°C° 0 mm 5 mps 715 mmHg 20%
19:00 +33°C° 0 mm 5 mps 715 mmHg 22%
20:00 +32°C° 0 mm 6 mps 715 mmHg 24%
21:00 +30°C° 0 mm 6 mps 715 mmHg 26%
22:00 +29°C° 0 mm 7 mps 716 mmHg 27%
23:00 +29°C° 0 mm 7 mps 716 mmHg 28%

Tomorrow, 23 September, Wednesday

Time Temperature Precipitation Wind Pressure Humidity
00:00 +28°C° 0 mm 6 mps 715 mmHg 29%
01:00 +27°C° 0 mm 6 mps 715 mmHg 30%
02:00 +26°C° 0 mm 6 mps 715 mmHg 31%
03:00 +26°C° 0 mm 6 mps 715 mmHg 33%
04:00 +25°C° 0 mm 5 mps 715 mmHg 34%
05:00 +26°C° 0 mm 6 mps 716 mmHg 34%
06:00 +27°C° 0 mm 6 mps 716 mmHg 35%
07:00 +27°C° 0 mm 7 mps 717 mmHg 35%
08:00 +30°C° 0 mm 6 mps 717 mmHg 31%
09:00 +33°C° 0 mm 6 mps 717 mmHg 26%
10:00 +36°C° 0 mm 6 mps 717 mmHg 22%
11:00 +37°C° 0 mm 5 mps 717 mmHg 20%
12:00 +38°C° 0 mm 4 mps 716 mmHg 18%
13:00 +40°C° 0 mm 4 mps 716 mmHg 16%
14:00 +40°C° 0 mm 4 mps 715 mmHg 15%
15:00 +40°C° 0 mm 4 mps 715 mmHg 14%
16:00 +40°C° 0 mm 4 mps 714 mmHg 14%
17:00 +38°C° 0 mm 4 mps 714 mmHg 16%
18:00 +36°C° 0 mm 5 mps 715 mmHg 18%
19:00 +34°C° 0 mm 5 mps 715 mmHg 19%
20:00 +33°C° 0 mm 6 mps 715 mmHg 21%
21:00 +32°C° 0 mm 7 mps 715 mmHg 22%
22:00 +30°C° 0 mm 7 mps 716 mmHg 24%
23:00 +29°C° 0 mm 7 mps 715 mmHg 24%

Day after tomorrow, 24 September, Thursday

Time Temperature Precipitation Wind Pressure Humidity
00:00 +28°C° 0 mm 7 mps 715 mmHg 25%
01:00 +27°C° 0 mm 6 mps 715 mmHg 25%
02:00 +27°C° 0 mm 6 mps 715 mmHg 26%
03:00 +26°C° 0 mm 6 mps 715 mmHg 28%
04:00 +24°C° 0 mm 6 mps 715 mmHg 29%
05:00 +26°C° 0 mm 6 mps 716 mmHg 29%
06:00 +26°C° 0 mm 6 mps 716 mmHg 28%
07:00 +27°C° 0 mm 6 mps 717 mmHg 28%
08:00 +29°C° 0 mm 6 mps 717 mmHg 25%
09:00 +33°C° 0 mm 6 mps 717 mmHg 22%
10:00 +35°C° 0 mm 5 mps 718 mmHg 19%
11:00 +37°C° 0 mm 5 mps 717 mmHg 17%
12:00 +39°C° 0 mm 5 mps 716 mmHg 16%
13:00 +40°C° 0 mm 5 mps 715 mmHg 14%
14:00 +39°C° 0 mm 5 mps 715 mmHg 14%
15:00 +39°C° 0 mm 5 mps 715 mmHg 13%
16:00 +39°C° 0 mm 6 mps 714 mmHg 13%
17:00 +36°C° 0 mm 5 mps 715 mmHg 14%
18:00 +34°C° 0 mm 5 mps 715 mmHg 16%
19:00 +32°C° 0 mm 5 mps 715 mmHg 17%
20:00 +30°C° 0 mm 5 mps 715 mmHg 18%
21:00 +29°C° 0 mm 5 mps 716 mmHg 19%
22:00 +28°C° 0 mm 5 mps 716 mmHg 19%
23:00 +28°C° 0 mm 5 mps 716 mmHg 21%

25 September, Friday

Time Temperature Precipitation Wind Pressure Humidity
00:00 +27°C° 0 mm 5 mps 715 mmHg 23%
01:00 +27°C° 0 mm 6 mps 715 mmHg 24%
02:00 +26°C° 0 mm 6 mps 715 mmHg 25%
03:00 +24°C° 0 mm 6 mps 715 mmHg 26%
04:00 +24°C° 0 mm 6 mps 716 mmHg 27%
05:00 +24°C° 0 mm 6 mps 716 mmHg 27%
06:00 +26°C° 0 mm 6 mps 716 mmHg 27%
07:00 +26°C° 0 mm 6 mps 717 mmHg 26%
08:00 +29°C° 0 mm 6 mps 717 mmHg 23%
09:00 +32°C° 0 mm 6 mps 717 mmHg 19%
10:00 +35°C° 0 mm 6 mps 717 mmHg 16%
11:00 +36°C° 0 mm 6 mps 716 mmHg 14%
12:00 +38°C° 0 mm 7 mps 716 mmHg 12%
13:00 +39°C° 0 mm 7 mps 715 mmHg 10%
14:00 +39°C° 0 mm 7 mps 715 mmHg 11%
15:00 +39°C° 0 mm 7 mps 714 mmHg 11%
16:00 +39°C° 0 mm 8 mps 714 mmHg 12%
17:00 +36°C° 0 mm 7 mps 714 mmHg 14%
18:00 +34°C° 0 mm 6 mps 714 mmHg 17%
19:00 +32°C° 0 mm 5 mps 714 mmHg 19%
20:00 +32°C° 0 mm 5 mps 714 mmHg 20%
21:00 +30°C° 0 mm 4 mps 714 mmHg 22%
22:00 +29°C° 0 mm 4 mps 714 mmHg 23%
23:00 +29°C° 0 mm 5 mps 714 mmHg 25%

26 September, Saturday

Time Temperature Precipitation Wind Pressure Humidity
00:00 +29°C° 0 mm 5 mps 714 mmHg 26%
01:00 +28°C° 0 mm 5 mps 713 mmHg 27%
02:00 +27°C° 0 mm 5 mps 713 mmHg 28%
03:00 +27°C° 0 mm 5 mps 713 mmHg 29%
04:00 +26°C° 0 mm 5 mps 713 mmHg 29%
05:00 +27°C° 0 mm 5 mps 714 mmHg 27%
06:00 +28°C° 0 mm 5 mps 714 mmHg 25%
07:00 +28°C° 0 mm 5 mps 715 mmHg 23%
08:00 +32°C° 0 mm 5 mps 715 mmHg 21%
09:00 +34°C° 0 mm 5 mps 715 mmHg 18%
10:00 +37°C° 0 mm 5 mps 715 mmHg 15%
11:00 +38°C° 0 mm 4 mps 714 mmHg 14%
12:00 +39°C° 0 mm 3 mps 713 mmHg 13%
13:00 +39°C° 0 mm 3 mps 713 mmHg 12%
14:00 +39°C° 0 mm 3 mps 713 mmHg 11%
15:00 +39°C° 0 mm 3 mps 712 mmHg 11%
16:00 +39°C° 0 mm 3 mps 712 mmHg 11%
17:00 +37°C° 0 mm 3 mps 712 mmHg 13%
18:00 +35°C° 0 mm 3 mps 712 mmHg 15%
19:00 +34°C° 0 mm 3 mps 712 mmHg 16%
20:00 +33°C° 0 mm 3 mps 713 mmHg 17%
21:00 +31°C° 0 mm 3 mps 713 mmHg 18%
22:00 +30°C° 0 mm 4 mps 713 mmHg 19%
23:00 +29°C° 0 mm 4 mps 713 mmHg 20%

27 September, Sunday

Time Temperature Precipitation Wind Pressure Humidity
00:00 +29°C° 0 mm 4 mps 713 mmHg 21%
01:00 +28°C° 0 mm 4 mps 712 mmHg 22%
02:00 +27°C° 0 mm 4 mps 712 mmHg 22%
03:00 +27°C° 0 mm 4 mps 712 mmHg 23%
04:00 +26°C° 0 mm 4 mps 712 mmHg 23%
05:00 +27°C° 0 mm 4 mps 713 mmHg 22%
06:00 +28°C° 0 mm 4 mps 713 mmHg 21%
07:00 +28°C° 0 mm 4 mps 714 mmHg 20%
08:00 +32°C° 0 mm 4 mps 714 mmHg 18%
09:00 +35°C° 0 mm 4 mps 714 mmHg 15%
10:00 +38°C° 0 mm 4 mps 715 mmHg 13%
11:00 +39°C° 0 mm 3 mps 714 mmHg 12%
12:00 +40°C° 0 mm 2 mps 713 mmHg 11%
13:00 +41°C° 0 mm 1 mps 713 mmHg 10%
14:00 +41°C° 0 mm 1 mps 713 mmHg 10%
15:00 +41°C° 0 mm 1 mps 712 mmHg 10%
16:00 +41°C° 0 mm 1 mps 712 mmHg 10%
17:00 +39°C° 0 mm 2 mps 712 mmHg 11%
18:00 +37°C° 0 mm 3 mps 712 mmHg 13%
19:00 +35°C° 0 mm 4 mps 712 mmHg 14%
20:00 +35°C° 0 mm 4 mps 713 mmHg 14%
21:00 +34°C° 0 mm 4 mps 713 mmHg 15%
22:00 +33°C° 0 mm 4 mps 713 mmHg 15%
23:00 +32°C° 0 mm 4 mps 713 mmHg 16%
Show more